Terminal Aerodrome Forecast
Issued by NWS

Home | Current Version | Previous Version | Text Only | Print | Product List | Glossary On
Versions: 1 2 3 4 5 6 7 8 9 10 11 12 13 14 15
000
FTUS44 KLIX 300520
TAFMSY
TAF
KMSY 300520Z 3006/3106 VRB03KT P6SM FEW090 SCT250
     FM301300 04007KT P6SM FEW030 SCT250
     FM301800 07011KT P6SM FEW040 SCT090=

USA.gov is the U.S. government's official web portal to all federal, state and local government web resources and services.